CAPE
4038 4018 3907 4027 4021 3758 3677 3563 3668 3404 3270 2876 3102 2867 2748 2565 2663 2381 2354 2137 1412 1461 1182 1007 1235 1135 1046 1196 991 1075 1130 890 663 865 577 808 574 355 307 249 236 336
4090 3990 3820 3831 3989 3909 4128 3657 3618 3395 3449 3294 2983 3254 3090 2424 2581 2155 2226 1579 1357 1284 1200 1000 1115 1283 1166 976 1179 864 1398 1036 1106 844 816 648 696 1039 432 482 296 739
4121 3989 3823 3719 3799 3955 3384 3648 3711 3441 3396 3116 3084 3329 2741 2414 1947 2009 2001 1500 1143 1082 1046 1025 884 1242 1131 1284 1211 1130 1037 1221 895 564 883 764 786 379 704 114 371 189
4353 4178 3741 3409 3364 3638 3591 3647 3701 3460 3178 3154 2855 2836 2384 1962 1908 1787 1972 1680 1317 1149 1131 964 879 820 1122 1133 1274 1046 1096 997 861 915 974 1133 852 854 529 713 512 720
4444 4352 3926 3471 3362 3674 3725 3701 3141 3370 2878 3010 2927 2592 2562 2350 2121 1707 1794 1406 1535 1288 1176 1081 1072 978 1153 1196 1242 1094 991 1081 927 915 1314 1242 1123 823 838 838 762 555
4477 4441 4332 3881 3672 3768 3810 3621 3460 3109 2914 3085 3015 2691 2635 2592 2206 1746 1614 1347 1445 1045 948 1005 1091 1018 1216 1212 1278 1295 917 770 748 791 915 988 993 911 658 831 823 707
4635 4613 4340 4120 4017 3756 3777 3723 3642 3280 3103 2895 3034 2740 2526 2466 2282 1948 1585 1369 1133 1097 896 811 910 1000 1122 1107 1074 1256 1154 982 957 908 880 810 978 897 735 811 888 732
4530 4566 4426 4102 3988 3907 3703 3739 3804 3544 3476 3330 3006 2909 2591 2360 2336 2135 1731 1596 1267 1198 1044 979 1055 1073 1205 1067 1079 1195 1181 1004 1148 1097 953 876 812 914 1068 801 887 974
4816 4726 4443 4205 3872 3846 3487 3408 3755 3822 3760 3581 3056 2900 2762 2461 2378 2052 1821 1637 1336 1196 1160 1134 1087 1174 1144 1086 1070 1195 1142 1000 1000 1014 830 842 840 762 762 799 861 868
4933 4911 4292 3956 3593 3630 3422 3179 2999 3778 3909 3759 3188 2814 2898 2700 2442 1990 1820 1691 1373 1204 1204 1118 1164 1128 1059 1138 1222 1183 1185 1156 1059 1042 927 882 894 775 722 769 815 809
4855 4852 4625 4301 3971 3615 3511 3118 2989 3382 3803 3626 3356 2952 3035 2772 2457 2036 1938 1769 1458 1193 1160 1152 1232 1112 925 908 1193 1233 1227 1144 996 914 951 985 850 745 834 759 790 766
4739 4530 4330 4374 4101 3709 3467 3312 3101 3752 3881 3701 3590 3223 3242 2831 2517 2141 1926 1815 1492 1242 1126 1160 1290 1137 974 921 1032 1182 1259 1094 910 753 712 796 741 798 821 917 905 902
4743 4568 4584 4486 4258 3960 3746 3677 3243 3146 3384 3368 3324 3033 3013 2677 2562 2304 1954 1834 1620 1295 1146 1171 1349 1276 1178 1096 1057 1148 1203 1065 866 750 667 729 696 747 736 789 848 831
4912 4737 4569 4576 4414 4421 4226 3924 3717 3668 3790 3865 3661 3406 2980 2781 2577 2450 2100 1877 1757 1330 1201 1258 1270 1042 1053 1036 1020 1137 1100 893 751 608 631 735 690 740 647 550 668 738
5252 5073 4771 4592 4741 4859 4662 4457 4300 4272 4298 4223 3922 3550 3254 3061 2830 2601 2247 2029 1833 1194 1215 1486 1256 816 974 1104 705 949 789 718 594 506 517 545 625 627 682 675 602 642
5537 5437 5111 5099 5186 5209 5044 4799 4689 4720 4472 4320 4242 3848 3586 3389 2884 2852 2217 2047 1596 1329 1480 1669 956 813 737 756 587 828 425 366 668 546 332 377 557 668 646 636 595 601
5944 5877 5581 5410 5513 5538 5438 5176 5018 4974 4677 4251 4332 4094 3749 3656 3608 2946 2404 2229 2026 1851 1615 1368 1254 1270 1211 1018 705 652 646 723 493 391 362 587 364 749 697 719 742 871
6104 6132 5985 5738 5716 5653 5608 5386 5241 5084 4773 4488 4391 4361 4013 3797 3555 3293 2522 2274 2086 1978 1802 1672 1634 1659 1607 1484 905 533 537 574 445 388 443 464 428 659 1118 1276 903 826
6306 6224 5934 5747 5608 5594 5452 5306 5163 4817 4564 4298 4123 4224 4172 3870 3984 3215 2593 2300 2101 2027 1873 1752 1739 1749 1837 1556 864 672 589 445 453 543 451 1037 1395 1255 873 906 1157 914
6299 6026 5785 5605 5546 5425 5137 5014 4897 4666 4436 4291 4145 4150 4022 3739 3516 3283 2637 2324 2085 1922 1821 1745 1737 1745 1702 1488 706 620 757 550 524 498 935 1005 667 393 354 386 983 1253
6137 5947 5792 5583 5423 5229 5011 4851 4815 4660 4366 4230 4062 3961 3873 3742 3296 2853 2522 2370 2183 1971 1854 1754 1710 1756 1584 1443 975 979 690 553 454 519 512 531 491 419 335 314 577 1992
6000 5840 5669 5371 5220 5097 5000 4885 4676 4384 4306 4094 3749 3535 3295 3689 2914 2636 2460 2324 2171 2174 2020 1882 1563 1398 1298 1314 1247 956 779 752 636 548 522 482 572 551 401 487 1467 1973
5767 5435 5312 5221 5064 4914 4817 4634 4374 4241 4161 3915 3505 3129 2830 3212 2892 2563 2402 2321 2217 2086 1938 1786 1569 1238 1409 1416 1332 958 880 776 711 622 518 473 482 417 412 600 2179 1652
5382 5094 5166 4734 4674 4586 4458 4253 4004 4004 4082 3754 3449 2904 2806 2599 2531 2464 2358 2237 2078 1894 1832 1738 1650 1543 1460 1291 1266 1214 1046 910 747 607 564 503 354 437 738 1850 1836 1930
5080 4793 4990 4566 4340 4294 3843 3839 3692 3667 3433 3181 2920 2908 2652 2287 2220 2243 2215 2042 1837 1693 1662 1629 1586 1475 1337 1261 1161 1093 948 796 656 562 438 353 367 499 1530 1974 1791 1652
4759 4551 4313 4134 4178 3946 3817 3672 3374 3079 3061 2859 2636 2319 2161 2017 1914 1856 1853 1662 1304 1344 1507 1455 1349 1298 1226 1118 992 926 796 702 628 546 450 432 834 1036 2294 1557 1638 1464
Wind_Speed
18 18 18 18 18 18 18 18 18 18 18 19 20 21 22 21 20 24 28 25 27 27 29 28 28 28 29 30 32 31 36 36 35 36 33 33 34 29 29 30 30 28
18 19 19 19 18 19 18 19 19 19 19 19 21 22 22 24 21 24 27 28 28 28 30 30 30 30 30 32 32 33 35 36 35 38 35 35 32 29 28 31 30 26
19 19 21 21 20 21 19 19 19 20 20 19 21 22 22 24 25 25 28 30 31 31 30 29 30 30 31 31 33 34 35 35 35 35 36 35 32 27 26 28 28 23
20 20 21 22 21 21 19 19 19 20 20 20 21 21 23 24 26 28 28 31 32 33 31 31 31 32 32 32 34 35 36 37 35 34 36 35 33 29 27 26 25 23
20 21 22 22 21 20 20 18 19 20 20 21 21 21 24 25 27 28 29 30 31 33 33 33 33 33 33 33 35 36 37 38 36 34 33 36 34 33 31 30 29 27
19 20 20 20 19 19 19 18 18 19 21 22 23 23 24 26 27 28 30 32 32 34 34 35 35 35 36 36 35 37 38 37 36 34 33 35 37 36 35 34 33 31
19 18 18 18 17 16 17 18 18 19 20 20 23 24 25 26 27 28 30 31 33 33 34 35 37 37 39 38 36 36 37 36 33 33 33 35 39 40 38 37 36 35
18 17 16 15 15 15 16 18 20 19 20 21 24 24 25 27 29 29 30 32 33 33 34 36 37 38 40 39 37 36 36 33 29 30 33 36 39 41 42 39 38 37
17 16 16 16 17 16 18 19 21 21 22 23 24 24 24 26 29 31 33 34 34 35 35 37 38 38 37 38 38 37 35 31 26 27 31 35 39 42 43 42 39 37
17 16 18 19 19 18 20 21 21 22 22 23 23 23 25 26 30 32 33 35 36 37 38 38 39 38 37 36 38 37 34 30 28 28 31 36 42 44 44 43 41 38
17 18 19 20 21 20 22 22 21 21 20 22 23 23 25 28 30 33 34 37 39 41 41 41 42 41 38 37 37 35 32 31 32 36 38 40 43 45 45 44 41 38
18 19 21 22 21 19 20 19 19 19 20 21 24 26 27 29 32 34 36 39 41 43 45 45 45 45 41 38 37 36 33 32 34 36 38 38 39 41 44 44 40 38
19 19 19 20 19 16 15 17 19 20 21 22 24 27 29 30 32 35 36 39 42 45 47 47 48 48 44 39 37 37 36 34 34 35 35 36 36 38 42 43 39 37
19 19 18 17 16 16 16 16 18 19 19 20 23 25 29 32 34 36 37 39 43 46 47 48 48 47 45 41 38 39 38 36 35 35 35 35 35 37 41 42 40 38
18 17 15 15 16 16 16 16 18 19 21 23 24 26 28 31 34 36 38 41 45 47 48 49 48 47 44 42 40 39 39 37 37 36 36 35 35 37 40 40 38 37
18 16 14 14 15 16 17 18 19 21 23 26 28 30 31 33 36 39 42 45 47 49 50 49 47 45 45 49 43 38 38 37 37 38 37 36 37 38 40 40 38 37
17 16 15 16 17 17 18 20 21 23 25 28 30 34 35 36 38 43 46 48 49 50 52 50 48 45 51 53 48 42 37 36 38 38 37 37 37 39 40 40 39 40
18 18 18 19 19 19 21 22 24 26 28 30 32 36 38 38 40 43 47 50 51 52 52 50 47 47 51 49 45 42 38 37 37 37 36 36 37 39 41 42 42 37
20 20 20 20 22 23 25 27 29 30 31 33 34 35 38 40 42 45 47 51 54 56 54 50 44 48 50 48 45 43 41 39 37 36 34 36 38 42 43 41 40 36
22 22 21 23 25 27 29 29 31 32 33 34 35 37 39 41 43 46 47 50 53 56 55 51 45 46 49 49 46 44 42 39 36 35 34 36 39 42 42 39 37 36
24 24 24 26 28 29 30 30 32 34 35 37 38 39 41 42 45 47 48 49 52 56 56 53 46 48 47 49 48 44 43 38 33 33 34 36 39 41 38 36 33 35
28 28 29 30 31 31 31 33 34 36 37 39 40 41 42 45 47 48 50 52 53 55 55 52 47 51 48 49 49 46 45 37 33 32 34 36 37 38 35 31 33 39
31 31 33 35 35 35 35 35 35 37 39 41 41 42 44 48 51 51 52 55 55 54 54 51 48 51 51 51 51 50 45 38 34 32 33 36 35 33 33 30 35 40
33 35 37 39 39 39 39 38 38 39 41 43 43 45 46 50 53 53 54 54 56 55 54 51 47 47 50 52 52 50 46 40 36 34 34 35 33 31 31 34 39 43
38 39 41 42 42 42 42 43 42 43 44 46 45 46 47 51 54 54 53 55 56 55 54 53 48 47 49 51 51 48 43 37 36 35 34 33 33 32 35 39 40 41
42 43 44 44 45 47 46 46 47 46 48 48 47 48 50 53 54 55 56 56 56 55 52 49 48 47 48 49 47 45 44 38 37 36 33 32 33 35 39 38 40 42
Wind_Direction
289 288 293 296 298 298 301 302 297 297 297 302 309 314 319 324 326 325 327 331 325 324 322 323 323 325 328 324 325 327 325 327 326 324 325 321 315 313 310 309 302 294
292 292 289 294 295 298 300 302 298 296 299 303 309 313 320 322 327 327 327 329 327 327 325 325 327 327 327 326 326 327 326 327 325 322 326 325 319 310 307 307 308 307
289 290 295 297 299 305 309 300 297 296 299 307 311 314 320 323 328 328 327 328 329 329 328 326 326 326 326 324 325 326 326 325 325 322 323 326 324 317 305 310 314 318
289 290 291 297 301 304 302 299 295 298 302 310 318 316 321 324 326 328 326 328 328 329 327 325 325 327 328 326 324 325 324 325 323 319 320 326 328 321 311 304 308 317
291 290 289 295 299 299 300 303 306 305 313 315 319 320 321 325 326 328 328 330 329 329 326 326 327 328 329 327 324 322 321 321 319 317 319 325 326 323 316 310 311 320
296 293 295 297 298 299 303 308 309 313 319 321 322 322 325 328 328 331 332 333 331 331 329 328 328 328 328 327 324 321 318 319 317 314 317 322 323 320 319 318 318 319
309 306 309 304 306 309 309 311 313 316 321 321 319 328 328 331 330 333 335 334 334 333 331 329 328 328 327 325 324 321 320 321 314 309 311 317 318 318 319 321 320 317
320 317 317 312 317 318 319 317 318 321 321 321 324 328 330 333 333 334 335 335 335 334 331 328 326 327 326 324 324 322 324 324 317 307 308 314 316 317 318 318 317 315
321 323 322 323 327 323 331 329 324 323 322 324 322 324 327 331 333 335 336 336 335 332 330 327 325 325 324 323 323 322 323 325 323 312 311 316 319 319 318 318 319 315
324 321 328 331 335 330 335 337 331 326 325 326 324 320 324 326 329 332 332 333 333 330 329 326 324 323 322 321 321 321 318 316 313 307 306 313 317 317 317 319 320 318
325 323 327 331 335 335 341 339 335 332 329 329 323 323 322 322 323 327 329 332 332 330 329 328 325 323 322 319 317 318 318 313 307 304 305 309 312 312 314 317 319 319
323 324 332 334 335 339 343 339 334 329 331 326 322 322 321 323 324 326 329 332 333 330 330 331 326 323 322 318 315 314 314 314 311 310 312 312 312 311 313 313 316 316
321 324 327 330 331 335 335 330 330 332 332 328 322 325 327 327 327 328 329 332 333 331 331 330 326 323 321 316 311 311 311 312 312 312 312 312 312 312 310 310 314 314
315 319 324 327 329 329 327 322 321 321 322 317 318 326 332 331 331 331 331 333 333 331 328 326 324 321 319 315 310 309 309 311 311 310 311 310 309 310 308 309 314 315
306 311 317 322 324 323 324 323 321 320 318 318 323 329 329 332 332 332 331 332 331 330 328 326 324 321 315 311 307 309 311 311 310 309 309 309 309 309 306 305 310 311
302 305 311 313 315 320 326 326 324 324 323 325 327 330 327 326 327 327 330 329 329 331 329 325 323 319 315 311 311 313 313 308 307 308 309 309 310 308 305 308 310 309
294 299 302 307 310 314 319 323 325 323 323 326 325 326 327 325 325 326 328 327 329 331 331 327 323 320 317 315 321 321 313 308 308 308 309 309 309 305 304 308 307 297
290 295 300 305 307 313 315 318 318 318 320 321 322 323 324 324 326 327 326 324 325 330 330 327 324 322 319 316 317 319 313 307 305 305 307 308 306 305 303 301 298 301
290 296 302 307 311 312 312 313 315 316 317 319 321 318 318 323 324 324 321 322 324 327 329 326 322 314 317 317 317 315 314 308 304 303 306 307 304 299 296 298 301 304
292 298 302 308 310 310 311 312 314 315 314 313 313 314 317 320 323 323 319 320 320 323 325 322 317 314 318 316 314 314 313 306 303 306 303 302 300 300 301 302 302 304
294 296 302 306 308 309 309 310 309 308 309 308 308 310 312 316 318 319 317 316 317 319 320 319 315 317 316 313 313 314 310 304 304 302 301 300 298 297 300 302 304 299
298 299 301 303 304 305 306 305 305 306 305 304 307 309 311 311 313 314 314 311 313 317 318 317 310 315 314 315 313 312 313 310 309 306 304 301 299 299 301 301 301 299
299 299 298 298 299 299 301 302 301 302 303 303 307 308 309 309 310 311 310 312 315 318 316 315 309 318 318 314 312 312 307 308 311 309 304 302 299 296 299 306 300 296
295 294 294 294 294 297 298 299 300 301 302 302 306 308 309 307 306 307 309 310 314 318 317 311 308 309 312 313 313 312 312 310 310 306 302 299 296 295 297 298 296 302
289 290 291 293 295 296 297 298 299 297 296 297 302 303 304 303 304 305 307 307 312 315 312 309 308 311 316 315 314 314 311 307 306 302 299 293 290 293 296 296 293 295
285 287 289 293 294 294 294 294 294 294 294 295 297 299 299 300 301 304 306 310 315 317 314 310 310 308 315 317 316 316 316 309 304 301 295 289 288 293 293 295 293 291